Overview Statistics Trail Chart Weather Telemetry Raw packets
 

This is the latest recevied weather packets stored in our database for station/object KJ5FA-10. If no packets are shown the sender has not sent any weather packets the latest 10 day(s).

<< 15 16 17 18 19 20 21 >>
Time Temp. Humidity Pressure Rain* Wind** Luminosity Snow
1788104381 28.89° C 52% 1019.1 hPa 0 mm - - -
1788103482 27.78° C 56% 1019.1 hPa 0 mm - - -
1788102582 27.22° C 57% 1019.3 hPa 0 mm - - -
1788100782 25.56° C 57% 1019.4 hPa 0 mm - - -
1788099882 25° C 61% 1019.7 hPa 0 mm - - -
1788098981 24.44° C 70% 1019.5 hPa 0 mm - - -
1788098082 23.33° C 75% 1019.6 hPa 0 mm - - -
1788097182 21.67° C 78% 1019.7 hPa 0 mm - - -
1788096282 20.56° C 83% 1019.6 hPa 0 mm - - -
1788095382 20° C 87% 1019.6 hPa 0 mm - - -
1788094482 18.89° C 89% 1019.8 hPa 0 mm - - -
1788093581 18.33° C 91% 1019.7 hPa 0 mm - - -
1788092682 18.33° C 92% 1019.7 hPa 0 mm - - -
1788091782 18.33° C 91% 1019.4 hPa 0 mm - - -
1788089982 18.89° C 89% 1019 hPa 0 mm - - -
1788089081 18.33° C 90% 1018.9 hPa 0 mm - - -
1788088182 18.33° C 90% 1018.5 hPa 0 mm - - -
1788087282 18.89° C 90% 1018.6 hPa 0 mm - - -
1788086382 18.33° C 91% 1018.6 hPa 0 mm - - -
1788085481 18.89° C 91% 1018.3 hPa 0 mm - - -
1788084581 18.89° C 91% 1018.3 hPa 0 mm - - -
1788083681 18.89° C 91% 1018.3 hPa 0 mm - - -
1788082781 18.89° C 92% 1018.3 hPa 0 mm - - -
1788081882 18.89° C 91% 1018.5 hPa 0 mm - - -
1788080981 18.89° C 91% 1018.3 hPa 0 mm - - -

* Rain latest hour (hover to see other rain measurements)
** Current wind speed in m/s (hover to see current wind gust speed)